Winfield, KS

2:53 PM CST on February 20, 2017 (GMT -0600)
Strother

Weather History for KWLD - May, 2013

Change the Weather History Date:

Monday, May 20, 2013

  Actual Average Record
Temperature  
Mean Temperature 72 °F -  
Max Temperature 82 °F 77 °F 93 °F (2004)
Min Temperature 61 °F 55 °F 42 °F (2000)
Cooling Degree Days 6    
Growing Degree Days 22 (Base 50)    
Moisture  
Dew Point 64 °F    
Average Humidity 81    
Maximum Humidity 100    
Minimum Humidity 45    
Precipitation  
Precipitation 0.00 in - - ()
Sea Level Pressure  
Sea Level Pressure 29.70 in    
Wind  
Wind Speed 5 mph (North)    
Max Wind Speed 9 mph    
Max Gust Speed -    
Visibility 9 miles    
Events Thunderstorm    
Averages and records for this station are not official NWS values.
T = Trace of Precipitation, MM = Missing Value Source: NWS Daily Summary

Daily Weather History Graph

Daily Weather History Graph

Search for Another Location

Airport or City:

Trip Planner

Search our weather history database for the weather conditions in past years. The results will help you decide how hot, cold, wet, or windy it might be!

Date:

Astronomy

May. 20, 2013 Rise Set
Actual Time 6:15 AM CDT 8:34 PM CDT
Civil Twilight 5:46 AM CDT 9:03 PM CDT
Nautical Twilight 5:09 AM CDT 9:40 PM CDT
Astronomical Twilight 4:30 AM CDT 10:19 PM CDT
Moon 3:49 PM CDT 3:04 AM CDT
Length of Visible Light 15h 17m
Length of Day
14h 18m
Waxing Gibbous, 75% of the Moon is Illuminated
May 20
Waxing Gibbous
May 24
Full
May 31
Last Quarter
Jun 8
New
Jun 16
First Quarter

Hourly Weather History & Observations

Time (CDT) Temp. Heat Index Dew Point Humidity Pressure Visibility Wind Dir Wind Speed Gust Speed Precip Events Conditions
12:50 AM 62.6 °F - 62.6 °F 100% 29.69 in 8.0 mi WNW 5.8 mph - N/A Thunderstorm Partly Cloudy
12:54 AM 63.0 °F - 62.1 °F 97% 29.67 in 8.0 mi NW 4.6 mph - N/A Thunderstorm Scattered Clouds
1:05 AM 62.6 °F - 62.6 °F 100% 29.69 in 8.0 mi NW 4.6 mph - N/A   Scattered Clouds
1:17 AM 62.6 °F - 62.6 °F 100% 29.69 in 8.0 mi NNW 3.5 mph - N/A   Mostly Cloudy
1:54 AM 63.0 °F - 62.1 °F 97% 29.63 in 8.0 mi Calm Calm - N/A   Scattered Clouds
2:54 AM 61.0 °F - 61.0 °F 100% 29.67 in 6.0 mi South 3.5 mph - N/A   Clear
3:54 AM 64.0 °F - 62.1 °F 93% 29.65 in 9.0 mi ENE 4.6 mph - N/A   Clear
4:54 AM 64.9 °F - 63.0 °F 93% 29.66 in 10.0 mi ENE 3.5 mph - N/A   Mostly Cloudy
5:54 AM 66.0 °F - 64.0 °F 93% 29.67 in 9.0 mi Calm Calm - N/A   Mostly Cloudy
6:20 AM 64.4 °F - 64.4 °F 100% 29.72 in 8.0 mi NNW 8.1 mph - N/A   Overcast
7:54 AM 66.0 °F - 64.0 °F 93% 29.72 in 8.0 mi NNE 5.8 mph - N/A   Overcast
8:26 AM 68.0 °F - 64.4 °F 88% 29.74 in 9.0 mi North 8.1 mph - N/A   Overcast
9:47 AM 69.8 °F - 66.2 °F 88% 29.75 in 8.0 mi ENE 5.8 mph - N/A   Overcast
9:54 AM 69.1 °F - 66.0 °F 90% 29.73 in 9.0 mi ENE 6.9 mph - N/A   Overcast
10:54 AM 72.0 °F - 66.0 °F 81% 29.73 in 9.0 mi North 5.8 mph - N/A   Overcast
11:40 AM 73.4 °F - 64.4 °F 73% 29.76 in 10.0 mi NNE 9.2 mph - N/A   Overcast
11:54 AM 75.0 °F - 66.0 °F 73% 29.72 in 10.0 mi NE 8.1 mph - N/A   Mostly Cloudy
12:35 PM 73.4 °F - 64.4 °F 73% 29.76 in 10.0 mi NNE 4.6 mph - N/A   Mostly Cloudy
12:54 PM 73.9 °F - 64.9 °F 73% 29.73 in 10.0 mi North 5.8 mph - N/A   Overcast
1:10 PM 78.8 °F - 66.2 °F 65% 29.75 in 10.0 mi North 6.9 mph - N/A   Mostly Cloudy
1:54 PM 79.0 °F - 66.9 °F 66% 29.71 in 10.0 mi North 6.9 mph - N/A   Clear
2:54 PM 80.1 °F 81.9 °F 64.9 °F 60% 29.70 in 10.0 mi North 8.1 mph - N/A   Clear
3:54 PM 81.0 °F 83.0 °F 66.0 °F 60% 29.67 in 10.0 mi NNW 8.1 mph - N/A   Clear
4:54 PM 81.0 °F 81.9 °F 62.1 °F 52% 29.66 in 10.0 mi North 8.1 mph - N/A   Clear
5:54 PM 82.0 °F 82.1 °F 59.0 °F 45% 29.68 in 10.0 mi NNW 3.5 mph - N/A   Clear
6:54 PM 80.1 °F 81.2 °F 62.1 °F 54% 29.67 in 10.0 mi NW 6.9 mph - N/A   Clear
7:54 PM 73.9 °F - 63.0 °F 68% 29.67 in 10.0 mi NNW 5.8 mph - N/A   Clear
9:54 PM 64.9 °F - 62.1 °F 90% 29.75 in 10.0 mi Calm Calm - N/A   Clear
10:54 PM 64.9 °F - 61.0 °F 87% 29.75 in 10.0 mi Calm Calm - N/A   Clear
11:54 PM 63.0 °F - 60.1 °F 90% 29.75 in 10.0 mi Calm Calm - N/A   Clear